Location: Fornova de Taro
(44.7000°N, 10.1000°E)
Time: 23:18:52
(UTC+00:00)

Cosmos 1980 - Pass Details

Date: 26 May 2022
Orbit: 840 x 846 km, 71.0° (Epoch: 02 July)

Event Time Altitude Azimuth Distance (km) Brightness Sun altitude
Exits shadow 00:20:12 52° 202° (SSW) 1,039 3.7 -22.6°
Maximum altitude 00:21:40 88° 117° (ESE) 847 3.6 -22.6°
Drops below altitude 10° 00:27:20 10° 26° (NNE) 2,465 7.2 -22.3°
Sets 00:29:47 0° 26° (NNE) 3,403 8.3 -22.1°
